sat.trackr.live / text

‹ back to catalog

STARLINK-34794

NORAD 65070 · 2025-165Q

PAYLOAD ACTIVE UNKNOWN

§ Identity

Operator
Country
US
Launch date
2025-07-31
Launch site
AFWTR
Launch vehicle
Mass (kg)
RCS (m²)

Purposes: comms

External: N2YO · Heavens-Above · Gunter

§ Orbital elements

Epoch: 2026-05-25T03:52:29.758656Z

Period
95.64 min
Inclination
97.4482°
Eccentricity
0.0001993
Mean motion
15.05657084 rev/d
Perigee alt
548.1 km
Apogee alt
550.9 km
Semi-major
6,927.6 km
B*
3.7419e-4
RAAN
222.1810°
Arg perigee
167.2657°
Mean anomaly
192.8620°
Rev number
4,629

§ Raw data

STARLINK-347941 65070U 25165Q   26145.16145554  .00005346  00000+0  37419-3 0  99902 65070  97.4482 222.1810 0001993 167.2657 192.8620 15.05657084 46296

JSON: /api/v1/satellites/65070 · /tle

For live sub-satellite position, see the globe view (requires WebGL).

§ Visibility from observer

Set your observer location to see the next 7 days of passes ≥ 10°. The values pass through the URL so the page stays shareable.

No JS? Fill the form by hand. The geolocation button needs JavaScript.